Amateur Radio Satellites - All Passes

Search period start: 20 June 2013 01:27
Search period end: 21 June 2013 01:27
Location: Girdwood, 60.9430°N, 149.1660°W

Satellite Date Start Highest point End Downlink Frequencies (MHz)
Time Altitude Azimuth
KITSAT 1 20 Jun 01:34:09 01:42:21 87° 33° (NNE) 01:50:32 435.175 FM
MaSat-1 20 Jun 01:50:18 01:52:49 18° 358° (N) 01:55:01 437.345 MHz
Sapphire 20 Jun 02:00:08 02:04:30 26° 115° (ESE) 02:08:54 437.095 MHz 1200 baud AX-25 AFSK
ITAMSAT 1 20 Jun 02:23:39 02:26:08 13° 79° (ENE) 02:28:36 435.822 SSB
AO-27 20 Jun 02:24:52 02:27:30 14° 79° (E) 02:30:08 436.795 MHz FM
SO-50 20 Jun 02:34:59 02:38:36 22° 122° (ESE) 02:42:11 436.795 FM
Oscar 16 20 Jun 02:41:15 02:45:12 22° 87° (E) 02:49:08 437.025 USB, Beacon 2401.1428
AO-Echo 20 Jun 02:54:06 02:55:07 11° 76° (ENE) 02:56:07 ?
Uribyol 2 20 Jun 02:56:07 03:00:09 22° 87° (E) 03:04:10 436.500 FM
Saudisat 1A 20 Jun 03:00:40 03:05:14 58° 349° (N) 03:09:48 436.775 MHz
PCSat 20 Jun 03:07:25 03:12:43 57° 131° (SE) 03:18:03 145.825 MHz
KITSAT 1 20 Jun 03:29:45 03:37:20 45° 238° (WSW) 03:44:55 435.175 FM
MaSat-1 20 Jun 03:32:45 03:35:30 28° 25° (NNE) 03:37:54 437.345 MHz
Oscar 19 20 Jun 03:34:51 03:39:44 42° 97° (E) 03:44:35 437.125 CW, 437.150 USB
Sapphire 20 Jun 03:41:53 03:47:19 78° 138° (SE) 03:52:47 437.095 MHz 1200 baud AX-25 AFSK
ITAMSAT 1 20 Jun 04:01:45 04:06:55 53° 101° (E) 04:12:01 435.822 SSB
AO-27 20 Jun 04:03:06 04:08:16 55° 101° (ESE) 04:13:25 436.795 MHz FM
Gurwin Techsat 1B 20 Jun 04:04:36 04:07:46 16° 81° (E) 04:10:56 435.225 FM
SO-50 20 Jun 04:13:57 04:18:39 69° 144° (SE) 04:23:16 436.795 FM
Oscar 16 20 Jun 04:20:10 04:25:21 86° 109° (ESE) 04:30:30 437.025 USB, Beacon 2401.1428
AO-Echo 20 Jun 04:30:24 04:35:16 43° 98° (E) 04:40:14 ?
Uribyol 2 20 Jun 04:35:09 04:40:27 85° 109° (ESE) 04:45:41 436.500 FM
Saudisat 1A 20 Jun 04:40:52 04:45:27 60° 13° (NNE) 04:49:59 436.775 MHz
PCSat 20 Jun 04:50:51 04:56:15 62° 334° (NNW) 05:01:41 145.825 MHz
Uosat F 20 Jun 04:50:59 04:55:24 29° 92° (E) 04:59:48 435.120 FM
STRAND 1 20 Jun 04:57:01 05:00:49 21° 42° (NE) 05:04:38 ?
TMSAT-1 20 Jun 05:02:46 05:07:17 27° 90° (E) 05:11:46 436.925 FM
AO-7 20 Jun 05:10:42 05:16:21 19° 78° (ENE) 05:21:58 29.400 - 29.500 MHz
Oscar 19 20 Jun 05:14:18 05:19:17 51° 299° (WNW) 05:24:14 437.125 CW, 437.150 USB
MaSat-1 20 Jun 05:14:39 05:17:27 50° 232° (SW) 05:19:57 437.345 MHz
Sapphire 20 Jun 05:25:48 05:31:07 52° 342° (NNW) 05:36:28 437.095 MHz 1200 baud AX-25 AFSK
KITSAT 1 20 Jun 05:26:39 05:30:45 15° 263° (W) 05:34:50 435.175 FM
ITAMSAT 1 20 Jun 05:41:28 05:46:25 43° 303° (WNW) 05:51:20 435.822 SSB
AO-27 20 Jun 05:42:51 05:47:47 42° 303° (WNW) 05:52:40 436.795 MHz FM
Gurwin Techsat 1B 20 Jun 05:43:35 05:48:54 61° 103° (ESE) 05:54:10 435.225 FM
UOSAT-12 20 Jun 05:49:26 05:53:27 32° 129° (SE) 05:57:31 437.025 FM, 437.400 FM
SO-50 20 Jun 05:54:47 05:59:27 61° 347° (NNW) 06:04:02 436.795 FM
Oscar 16 20 Jun 05:59:58 06:04:18 28° 311° (NW) 06:08:37 437.025 USB, Beacon 2401.1428
AO-Echo 20 Jun 06:09:19 06:14:12 49° 299° (WNW) 06:19:12 ?
Uribyol 2 20 Jun 06:15:04 06:19:32 29° 311° (NW) 06:23:58 436.500 FM
Saudisat 1A 20 Jun 06:20:45 06:25:21 69° 216° (SW) 06:29:51 436.775 MHz
Uosat F 20 Jun 06:29:38 06:34:42 71° 294° (WNW) 06:39:44 435.120 FM
STRAND 1 20 Jun 06:34:12 06:39:17 65° 65° (ENE) 06:44:25 ?
PCSat 20 Jun 06:35:14 06:40:28 45° 359° (N) 06:45:42 145.825 MHz
TMSAT-1 20 Jun 06:42:29 06:47:50 80° 292° (WNW) 06:53:09 436.925 FM
Oscar 19 20 Jun 06:54:22 06:57:44 18° 321° (NW) 07:01:04 437.125 CW, 437.150 USB
AO-7 20 Jun 07:02:57 07:11:13 57° 103° (ESE) 07:19:25 29.400 - 29.500 MHz
Sapphire 20 Jun 07:10:11 07:15:26 46° 7° (N) 07:20:41 437.095 MHz 1200 baud AX-25 AFSK
Hamsat 20 Jun 07:20:20 07:21:11 10° 78° (ENE) 07:22:02 145.90 MHz
ITAMSAT 1 20 Jun 07:21:43 07:24:51 16° 325° (NW) 07:27:58 435.822 SSB
AO-27 20 Jun 07:23:08 07:26:12 16° 326° (NW) 07:29:16 436.795 MHz FM
Gurwin Techsat 1B 20 Jun 07:23:51 07:28:46 38° 305° (NW) 07:33:39 435.225 FM
UOSAT-12 20 Jun 07:28:43 07:33:18 90° 327° (NNW) 07:37:56 437.025 FM, 437.400 FM
JAS-1B 20 Jun 07:32:49 07:34:57 12° 76° (ENE) 07:37:08 435.800 - 435.900 CW/SSB
SO-50 20 Jun 07:35:58 07:40:35 58° 11° (N) 07:45:06 436.795 FM
Oscar 16 20 Jun 07:40:30 07:42:16 12° 334° (NNW) 07:44:01 437.025 USB, Beacon 2401.1428
AO-Echo 20 Jun 07:48:54 07:52:05 17° 320° (NW) 07:55:20 ?
Uribyol 2 20 Jun 07:55:34 07:57:37 12° 334° (NNW) 07:59:39 436.500 FM
Saudisat 1A 20 Jun 08:00:57 08:04:27 22° 238° (WSW) 08:07:53 436.775 MHz
Uosat F 20 Jun 08:09:00 08:12:51 22° 316° (NW) 08:16:42 435.120 FM
STRAND 1 20 Jun 08:14:16 08:18:54 33° 266° (W) 08:23:33 ?
PCSat 20 Jun 08:19:18 08:24:43 60° 24° (NNE) 08:30:07 145.825 MHz
TMSAT-1 20 Jun 08:22:55 08:27:12 25° 314° (NW) 08:31:28 436.925 FM
Sapphire 20 Jun 08:54:04 08:59:32 73° 32° (NNE) 09:05:00 437.095 MHz 1200 baud AX-25 AFSK
Hamsat 20 Jun 08:54:04 08:58:23 49° 99° (E) 09:02:38 145.90 MHz
AO-7 20 Jun 08:56:02 09:04:14 61° 308° (NW) 09:12:25 29.400 - 29.500 MHz
Gurwin Techsat 1B 20 Jun 09:04:38 09:07:33 15° 328° (NNW) 09:10:28 435.225 FM
SO-67 20 Jun 09:04:55 09:07:56 24° 92° (E) 09:10:55 435.3500 MHz FM
UOSAT-12 20 Jun 09:09:18 09:13:49 55° 354° (N) 09:18:22 437.025 FM, 437.400 FM
SO-50 20 Jun 09:16:49 09:21:27 76° 214° (SW) 09:25:58 436.795 FM
HO-68 20 Jun 09:18:43 09:21:25 12° 72° (ENE) 09:24:07 435.675 MHz FM
JAS-1B 20 Jun 09:21:42 09:27:15 49° 100° (E) 09:33:15 435.800 - 435.900 CW/SSB
Oscar 10/S400 20 Jun 09:34:07 11:58:00 21° 269° (W) 16:15:11 145.825 - 145.975 CW/USB, Beacon 145.810 USB
PCSat 20 Jun 10:02:55 10:08:18 61° 228° (SW) 10:13:39 145.825 MHz
TMSAT-1 20 Jun 10:04:03 10:05:34 11° 337° (NNW) 10:07:05 436.925 FM
Hamsat 20 Jun 10:30:21 10:34:25 37° 300° (WNW) 10:38:27 145.90 MHz
JAS-2 20 Jun 10:31:04 10:35:27 23° 85° (E) 10:39:36 435.800 - 435.900 CW/SSB, 435.910 FM
Sapphire 20 Jun 10:37:42 10:42:50 43° 235° (SW) 10:47:56 437.095 MHz 1200 baud AX-25 AFSK
SO-67 20 Jun 10:38:07 10:41:38 52° 293° (WNW) 10:45:08 435.3500 MHz FM
Oscar 11 20 Jun 10:38:34 10:41:20 16° 84° (E) 10:44:04 145.825 FM, Beacon 2401.500 USB
AO-7 20 Jun 10:48:47 10:55:49 32° 333° (NNW) 11:02:51 29.400 - 29.500 MHz
UOSAT-12 20 Jun 10:49:54 10:54:29 66° 18° (NNE) 10:59:06 437.025 FM, 437.400 FM
Oscar 16 20 Jun 10:55:48 10:56:50 11° 23° (NNE) 10:57:52 437.025 USB, Beacon 2401.1428
SO-50 20 Jun 10:57:51 11:01:32 24° 236° (SW) 11:05:10 436.795 FM
HO-68 20 Jun 11:04:32 11:11:19 42° 96° (E) 11:18:04 435.675 MHz FM
Uribyol 2 20 Jun 11:10:58 11:12:27 11° 23° (NNE) 11:13:55 436.500 FM
JAS-1B 20 Jun 11:12:41 11:18:08 48° 303° (WNW) 11:23:56 435.800 - 435.900 CW/SSB
RS-15 20 Jun 11:34:01 11:42:31 24° 101° (E) 11:50:45 29.354 - 29.394 USB, Beacon 29.352 USB
Oscar 19 20 Jun 11:47:07 11:49:57 15° 34° (NE) 11:52:46 437.125 CW, 437.150 USB
PCSat 20 Jun 11:47:10 11:50:49 19° 250° (WSW) 11:54:28 145.825 MHz
OPAL 20 Jun 12:06:48 12:10:51 24° 93° (E) 12:14:53 ?
Hamsat 20 Jun 12:07:51 12:09:26 12° 322° (NW) 12:11:02 145.90 MHz
SO-67 20 Jun 12:12:56 12:14:23 12° 314° (NW) 12:15:49 435.3500 MHz FM
Oscar 11 20 Jun 12:13:55 12:18:21 76° 106° (ESE) 12:22:44 145.825 FM, Beacon 2401.500 USB
ITAMSAT 1 20 Jun 12:14:05 12:17:33 18° 38° (NE) 12:21:01 435.822 SSB
AO-27 20 Jun 12:15:26 12:18:57 19° 38° (NE) 12:22:30 436.795 MHz FM
JAS-2 20 Jun 12:15:47 12:21:33 90° 109° (ESE) 12:26:49 435.800 - 435.900 CW/SSB, 435.910 FM
Sapphire 20 Jun 12:23:04 12:24:59 12° 257° (WSW) 12:26:55 437.095 MHz 1200 baud AX-25 AFSK
UOSAT-12 20 Jun 12:30:12 12:34:43 56° 221° (SW) 12:39:14 437.025 FM, 437.400 FM
Oscar 16 20 Jun 12:30:35 12:34:40 24° 46° (NE) 12:38:45 437.025 USB, Beacon 2401.1428
AO-7 20 Jun 12:40:12 12:46:30 25° 0° (N) 12:52:47 29.400 - 29.500 MHz
AO-Echo 20 Jun 12:40:21 12:42:35 13° 33° (NNE) 12:44:51 ?
Uribyol 2 20 Jun 12:46:12 12:50:24 25° 46° (NE) 12:54:37 436.500 FM
HO-68 20 Jun 12:52:22 12:59:32 71° 300° (WNW) 13:06:41 435.675 MHz FM
Uosat F 20 Jun 13:01:44 13:03:38 12° 28° (NNE) 13:05:32 435.120 FM
JAS-1B 20 Jun 13:04:02 13:07:44 18° 328° (NNW) 13:11:31 435.800 - 435.900 CW/SSB
TMSAT-1 20 Jun 13:19:07 13:21:13 12° 26° (NNE) 13:23:18 436.925 FM
Oscar 19 20 Jun 13:23:24 13:28:11 40° 57° (ENE) 13:32:58 437.125 CW, 437.150 USB
RS-15 20 Jun 13:41:11 13:52:36 60° 128° (SE) 14:03:30 29.354 - 29.394 USB, Beacon 29.352 USB
OPAL 20 Jun 13:45:23 13:50:23 84° 294° (WNW) 13:55:22 ?
Oscar 11 20 Jun 13:50:36 13:54:15 26° 307° (NW) 13:57:54 145.825 FM, Beacon 2401.500 USB
ITAMSAT 1 20 Jun 13:51:04 13:56:07 51° 60° (ENE) 14:01:12 435.822 SSB
AO-27 20 Jun 13:52:30 13:57:34 53° 61° (ENE) 14:02:41 436.795 MHz FM
Gurwin Techsat 1B 20 Jun 13:57:48 14:01:34 20° 40° (NE) 14:05:21 435.225 FM
JAS-2 20 Jun 14:01:17 14:06:07 28° 314° (NW) 14:10:36 435.800 - 435.900 CW/SSB, 435.910 FM
Oscar 16 20 Jun 14:08:16 14:13:27 78° 68° (ENE) 14:18:38 437.025 USB, Beacon 2401.1428
UOSAT-12 20 Jun 14:11:11 14:14:06 17° 242° (WSW) 14:17:01 437.025 FM, 437.400 FM
AO-Echo 20 Jun 14:15:50 14:20:11 36° 56° (NE) 14:24:41 ?
Uribyol 2 20 Jun 14:24:05 14:29:20 80° 68° (ENE) 14:34:36 436.500 FM
AO-7 20 Jun 14:30:08 14:37:11 32° 27° (NNE) 14:44:16 29.400 - 29.500 MHz
Uosat F 20 Jun 14:36:47 14:41:06 30° 51° (NE) 14:45:27 435.120 FM
HO-68 20 Jun 14:40:19 14:46:22 31° 324° (NW) 14:52:26 435.675 MHz FM
JAS-1B 20 Jun 14:54:56 14:56:19 11° 356° (N) 14:57:43 435.800 - 435.900 CW/SSB
TMSAT-1 20 Jun 14:55:12 14:59:43 29° 50° (NE) 15:04:15 436.925 FM
Oscar 19 20 Jun 15:02:24 15:07:29 56° 258° (WSW) 15:12:35 437.125 CW, 437.150 USB
OPAL 20 Jun 15:24:45 15:28:48 26° 316° (NW) 15:32:51 ?
ITAMSAT 1 20 Jun 15:30:49 15:35:48 43° 262° (W) 15:40:49 435.822 SSB
AO-27 20 Jun 15:32:21 15:37:18 42° 263° (W) 15:42:18 436.795 MHz FM
Gurwin Techsat 1B 20 Jun 15:35:30 15:40:42 58° 63° (ENE) 15:45:57 435.225 FM
JAS-2 20 Jun 15:46:55 15:49:31 13° 340° (NNW) 15:52:01 435.800 - 435.900 CW/SSB, 435.910 FM
Oscar 16 20 Jun 15:49:02 15:53:24 27° 270° (W) 15:57:47 437.025 USB, Beacon 2401.1428
RS-15 20 Jun 15:53:01 16:04:47 83° 337° (NNW) 16:16:00 29.354 - 29.394 USB, Beacon 29.352 USB
AO-Echo 20 Jun 15:54:09 15:58:52 58° 258° (WSW) 16:03:46 ?
Uribyol 2 20 Jun 16:05:01 16:09:26 27° 270° (W) 16:13:52 436.500 FM
Uosat F 20 Jun 16:14:31 16:19:34 80° 252° (WSW) 16:24:40 435.120 FM
AO-7 20 Jun 16:20:37 16:28:48 63° 53° (NE) 16:37:02 29.400 - 29.500 MHz
HO-68 20 Jun 16:27:31 16:32:12 19° 349° (N) 16:36:53 435.675 MHz FM
TMSAT-1 20 Jun 16:33:54 16:39:14 86° 252° (WSW) 16:44:37 436.925 FM
JAS-1B 20 Jun 16:41:44 16:44:45 15° 24° (NNE) 16:47:42 435.800 - 435.900 CW/SSB
Oscar 19 20 Jun 16:45:22 16:48:02 14° 280° (W) 16:50:42 437.125 CW, 437.150 USB
OPAL 20 Jun 17:04:32 17:06:19 12° 339° (NNW) 17:08:06 ?
ITAMSAT 1 20 Jun 17:15:40 17:16:47 11° 285° (WNW) 17:17:53 435.822 SSB
Gurwin Techsat 1B 20 Jun 17:16:02 17:20:59 38° 265° (W) 17:25:58 435.225 FM
AO-27 20 Jun 17:17:51 17:18:20 10° 285° (WNW) 17:18:50 436.795 MHz FM
JAS-2 20 Jun 17:30:53 17:32:19 11° 6° (N) 17:33:43 435.800 - 435.900 CW/SSB, 435.910 FM
AO-Echo 20 Jun 17:36:25 17:38:50 14° 280° (W) 17:41:17 ?
Uosat F 20 Jun 17:55:35 17:59:13 20° 274° (W) 18:02:53 435.120 FM
RS-15 20 Jun 18:06:35 18:18:08 75° 8° (N) 18:29:11 29.354 - 29.394 USB, Beacon 29.352 USB
KITSAT 1 20 Jun 18:09:07 18:15:57 32° 113° (ESE) 18:22:51 435.175 FM
HO-68 20 Jun 18:12:48 18:17:40 20° 15° (NNE) 18:22:32 435.675 MHz FM
AO-7 20 Jun 18:13:44 18:21:53 55° 257° (WSW) 18:30:07 29.400 - 29.500 MHz
TMSAT-1 20 Jun 18:15:52 18:19:59 22° 274° (W) 18:24:07 436.925 FM
SO-67 20 Jun 18:20:03 18:20:56 11° 44° (NE) 18:21:50 435.3500 MHz FM
Hamsat 20 Jun 18:22:49 18:26:33 28° 55° (NE) 18:30:18 145.90 MHz
JAS-1B 20 Jun 18:28:34 18:33:59 34° 50° (NE) 18:39:03 435.800 - 435.900 CW/SSB
STRAND 1 20 Jun 18:36:50 18:38:00 11° 76° (ENE) 18:39:10 ?
ISS 20 Jun 18:49:45 18:51:39 15° 167° (SSE) 18:53:33 145.800 FM
JAS-2 20 Jun 19:11:14 19:15:18 18° 32° (NNE) 19:19:06 435.800 - 435.900 CW/SSB, 435.910 FM
SO-67 20 Jun 19:50:10 19:53:36 44° 65° (ENE) 19:57:03 435.3500 MHz FM
HO-68 20 Jun 19:57:21 20:03:38 35° 41° (NE) 20:09:57 435.675 MHz FM
MaSat-1 20 Jun 19:57:31 19:59:16 12° 111° (ESE) 20:00:53 437.345 MHz
Hamsat 20 Jun 19:57:58 20:02:21 69° 256° (WSW) 20:06:47 145.90 MHz
KITSAT 1 20 Jun 20:02:20 20:10:24 77° 138° (SE) 20:18:33 435.175 FM
Oscar 11 20 Jun 20:09:58 20:12:06 13° 40° (NE) 20:14:13 145.825 FM, Beacon 2401.500 USB
AO-7 20 Jun 20:11:23 20:16:49 18° 283° (WNW) 20:22:17 29.400 - 29.500 MHz
STRAND 1 20 Jun 20:13:40 20:18:38 44° 98° (E) 20:23:34 ?
OPAL 20 Jun 20:17:51 20:20:26 14° 28° (NNE) 20:23:01 ?
JAS-1B 20 Jun 20:18:07 20:24:28 75° 253° (WSW) 20:30:13 435.800 - 435.900 CW/SSB
RS-15 20 Jun 20:19:40 20:30:58 79° 219° (SW) 20:41:51 29.354 - 29.394 USB, Beacon 29.352 USB
ISS 20 Jun 20:25:24 20:27:30 16° 187° (S) 20:29:35 145.800 FM
JAS-2 20 Jun 20:52:51 20:59:10 42° 55° (NE) 21:04:48 435.800 - 435.900 CW/SSB, 435.910 FM
SO-67 20 Jun 21:24:04 21:27:13 28° 266° (W) 21:30:23 435.3500 MHz FM
MaSat-1 20 Jun 21:36:08 21:40:36 53° 128° (SE) 21:44:04 437.345 MHz
Hamsat 20 Jun 21:36:45 21:39:17 15° 278° (W) 21:41:49 145.90 MHz
Oscar 11 20 Jun 21:43:15 21:47:24 43° 61° (ENE) 21:51:34 145.825 FM, Beacon 2401.500 USB
HO-68 20 Jun 21:43:32 21:50:43 84° 65° (ENE) 21:57:56 435.675 MHz FM
STRAND 1 20 Jun 21:52:59 21:57:59 49° 300° (WNW) 22:02:57 ?
OPAL 20 Jun 21:53:42 21:58:11 35° 50° (NE) 22:02:40 ?
KITSAT 1 20 Jun 21:58:06 22:06:12 67° 345° (NNW) 22:14:21 435.175 FM
JAS-1B 20 Jun 22:11:47 22:16:14 20° 275° (W) 22:20:24 435.800 - 435.900 CW/SSB
RS-15 20 Jun 22:32:13 22:41:55 37° 248° (WSW) 22:51:24 29.354 - 29.394 USB, Beacon 29.352 USB
JAS-2 20 Jun 22:37:08 22:44:07 69° 256° (WSW) 22:50:16 435.800 - 435.900 CW/SSB, 435.910 FM
MaSat-1 20 Jun 23:18:33 23:22:29 40° 327° (NNW) 23:25:37 437.345 MHz
Oscar 11 20 Jun 23:19:34 23:23:43 40° 263° (W) 23:27:54 145.825 FM, Beacon 2401.500 USB
OPAL 20 Jun 23:31:56 23:36:55 67° 252° (WSW) 23:41:53 ?
HO-68 20 Jun 23:32:51 23:39:13 34° 268° (W) 23:45:39 435.675 MHz FM
STRAND 1 20 Jun 23:32:53 23:36:14 18° 322° (NW) 23:39:35 ?
KITSAT 1 20 Jun 23:54:30 00:02:36 65° 12° (NNE) 00:10:43 435.175 FM
Saudisat 1A 20 Jun 23:55:34 23:59:46 36° 131° (SE) 00:04:00 436.775 MHz
JAS-2 21 Jun 00:25:16 00:30:14 21° 277° (W) 00:34:51 435.800 - 435.900 CW/SSB, 435.910 FM
RS-15 21 Jun 00:48:53 00:50:24 10° 276° (W) 00:51:54 29.354 - 29.394 USB, Beacon 29.352 USB
PCSat 21 Jun 00:57:33 01:00:11 14° 105° (ESE) 01:02:48 145.825 MHz
MaSat-1 21 Jun 01:02:17 01:04:58 19° 350° (N) 01:07:17 437.345 MHz
OPAL 21 Jun 01:13:41 01:16:47 16° 273° (W) 01:19:54 ?

Developed and maintained by Chris Peat, Heavens-Above GmbH. Please read the updated FAQ before sending e-mail. Imprint. DLR
